This is the latest recevied weather packets stored in our database for station/object Krupka. If no packets are shown the sender has not sent any weather packets the latest 1 day(s).
| Time | Temp. | Humidity | Pressure | Rain* | Wind** | Luminosity | Snow |
|---|---|---|---|---|---|---|---|
| 1777970403 | 17.78° C | 60% | - | - | 1.79 m/s, 14° | - | - |
| 1777970103 | 17.78° C | 60% | - | - | 3.13 m/s, 15° | - | - |
| 1777969804 | 17.22° C | 60% | - | - | 4.02 m/s, 2° | - | - |
| 1777969503 | 17.22° C | 61% | - | - | 4.02 m/s, 3° | - | - |
| 1777969206 | 17.22° C | 62% | - | - | 4.02 m/s, 11° | - | - |
| 1777968903 | 16.11° C | 63% | - | - | 3.13 m/s, 5° | - | - |
| 1777968603 | 16.11° C | 62% | - | - | 3.13 m/s, 11° | - | - |
| 1777968303 | 17.22° C | 62% | - | - | 1.79 m/s, 9° | - | - |
| 1777968003 | 17.22° C | 63% | - | - | 1.79 m/s, 2° | - | - |
| 1777967703 | 17.22° C | 63% | - | - | 0.89 m/s, 16° | - | - |
| 1777967404 | 17.22° C | 64% | - | - | 0.89 m/s, 7° | - | - |
| 1777966803 | 16.11° C | 65% | - | - | 0.89 m/s, 42° | - | - |
| 1777966503 | 16.11° C | 65% | - | - | 0.89 m/s, 27° | - | - |
| 1777966204 | 16.11° C | 66% | - | - | 1.79 m/s, 8° | - | - |
| 1777965904 | 15° C | 67% | - | - | 0.89 m/s, 3° | - | - |
| 1777965606 | 13.89° C | 67% | - | - | 1.79 m/s, 355° | - | - |
| 1777965303 | 13.89° C | 67% | - | - | 1.79 m/s, 8° | - | - |
| 1777965004 | 15° C | 67% | - | - | 3.13 m/s, 3° | - | - |
| 1777964704 | 13.89° C | 67% | - | - | 3.13 m/s, 357° | - | - |
| 1777964403 | 13.89° C | 67% | - | - | 3.13 m/s, 353° | - | - |
| 1777964103 | 13.89° C | 67% | - | - | 1.79 m/s, 357° | - | - |
| 1777963804 | 13.89° C | 67% | - | - | 3.13 m/s, 342° | - | - |
| 1777963509 | 12.78° C | 67% | - | - | 3.13 m/s, 5° | - | - |
| 1777963204 | 12.78° C | 67% | - | - | 4.92 m/s, 348° | - | - |
| 1777962904 | 12.78° C | 67% | - | - | 4.02 m/s, 355° | - | - |
* Rain since midnight (hover to see other rain measurements)
** Current wind speed in m/s (hover to see current wind gust speed)